ACA638 CYBC-CYOW

Flight info

Callsign ACA638
Flight time N/A
Altitude 38000
Route MIVAX DCT OBTEK DCT NOSUT DCT ALIDO LEAMY5
Aircraft A20N/M-SDE2E3FGHIRWXY/LB1

Departure

Time 2026-05-05 00:01
Airport Baie-Comeau Airport (CYBC)

Arrival

Time N/A
Airport Ottawa Macdonald-Cartier International Airport (CYOW)
Time Latitude Longitude Altitude Speed Heading
2026-05-04 23:50 49.13587 -68.20118 76 ft 0 kts 200°
2026-05-04 23:57 49.13600 -68.20111 68 ft 2 kts 200°
2026-05-04 23:57 49.13613 -68.20105 66 ft 2 kts 184°
2026-05-04 23:57 49.13624 -68.20105 68 ft 0 kts 169°
2026-05-04 23:58 49.13624 -68.20104 68 ft 0 kts 169°
2026-05-04 23:58 49.13599 -68.20073 67 ft 8 kts 121°
2026-05-04 23:58 49.13543 -68.19978 70 ft 14 kts 157°
2026-05-04 23:59 49.13424 -68.19940 71 ft 20 kts 172°
2026-05-04 23:59 49.13322 -68.19861 72 ft 10 kts 103°
2026-05-04 23:59 49.13335 -68.19741 65 ft 15 kts 79°
2026-05-04 23:59 49.13358 -68.19550 72 ft 22 kts 79°
2026-05-05 00:00 49.13397 -68.19314 69 ft 14 kts 40°
2026-05-05 00:00 49.13418 -68.19286 67 ft 12 kts 45°
2026-05-05 00:00 49.13407 -68.19240 67 ft 3 kts 191°
2026-05-05 00:00 49.13391 -68.19270 67 ft 1 kts 256°
2026-05-05 00:01 49.13331 -68.19742 68 ft 99 kts 259°
2026-05-05 00:01 49.13152 -68.21193 263 ft 167 kts 259°
2026-05-05 00:01 49.12870 -68.23140 890 ft 208 kts 259°
2026-05-05 00:01 49.12535 -68.25467 1859 ft 239 kts 261°
2026-05-05 00:02 49.12213 -68.27975 3161 ft 240 kts 261°
2026-05-05 00:02 49.11576 -68.30393 4026 ft 250 kts 242°
2026-05-05 00:02 49.10383 -68.32351 4519 ft 262 kts 224°
2026-05-05 00:02 49.08933 -68.34080 5169 ft 267 kts 222°
2026-05-05 00:03 49.07453 -68.35770 6659 ft 263 kts 221°
2026-05-05 00:03 49.05966 -68.37457 8048 ft 271 kts 221°
2026-05-05 00:03 49.04436 -68.39204 9382 ft 279 kts 221°
2026-05-05 00:03 49.02860 -68.41007 10592 ft 288 kts 221°
2026-05-05 00:04 49.01193 -68.42924 11345 ft 313 kts 221°
2026-05-05 00:04 48.99384 -68.45004 12044 ft 336 kts 221°
2026-05-05 00:04 48.97484 -68.47173 13134 ft 344 kts 221°
2026-05-05 00:04 48.95550 -68.49371 14207 ft 351 kts 221°
2026-05-05 00:05 48.93574 -68.51619 15224 ft 358 kts 221°
2026-05-05 00:05 48.91557 -68.53915 16239 ft 364 kts 221°
2026-05-05 00:05 48.89506 -68.56249 17229 ft 371 kts 221°
2026-05-05 00:05 48.87417 -68.58625 18177 ft 378 kts 220°
2026-05-05 00:06 48.85325 -68.61001 19063 ft 382 kts 220°
2026-05-05 00:06 48.83184 -68.63429 19966 ft 387 kts 220°
2026-05-05 00:06 48.81015 -68.65886 20841 ft 392 kts 220°
2026-05-05 00:06 48.78814 -68.68378 21711 ft 397 kts 220°
2026-05-05 00:07 48.76579 -68.70905 22583 ft 403 kts 220°
2026-05-05 00:07 48.74321 -68.73455 23391 ft 408 kts 220°
2026-05-05 00:07 48.72035 -68.76033 24103 ft 412 kts 220°
2026-05-05 00:07 48.69719 -68.78642 24809 ft 417 kts 220°
2026-05-05 00:08 48.67377 -68.81276 25487 ft 421 kts 221°
2026-05-05 00:08 48.65010 -68.83926 26111 ft 426 kts 222°
2026-05-05 00:08 48.63391 -68.85740 26542 ft 429 kts 223°
2026-05-05 00:08 48.61010 -68.88412 27182 ft 434 kts 223°
2026-05-05 00:09 48.58578 -68.91140 27533 ft 437 kts 223°
2026-05-05 00:09 48.56127 -68.93883 27666 ft 438 kts 223°
2026-05-05 00:09 48.53673 -68.96624 27679 ft 438 kts 223°
2026-05-05 00:09 48.51224 -68.99356 27681 ft 438 kts 223°
2026-05-05 00:10 48.48769 -69.02091 27679 ft 438 kts 223°
2026-05-05 00:10 48.46314 -69.04812 27679 ft 439 kts 225°
2026-05-05 00:10 48.43842 -69.07550 27683 ft 440 kts 225°
2026-05-05 00:10 48.41385 -69.10277 27684 ft 439 kts 225°
2026-05-05 00:11 48.38929 -69.13003 27689 ft 439 kts 225°
2026-05-05 00:11 48.36463 -69.15739 27755 ft 442 kts 225°
2026-05-05 00:11 48.33975 -69.18497 28360 ft 445 kts 225°
2026-05-05 00:11 48.31502 -69.21233 28977 ft 448 kts 225°
2026-05-05 00:12 48.28976 -69.24023 29462 ft 452 kts 225°
2026-05-05 00:12 48.26429 -69.26828 29955 ft 457 kts 226°
2026-05-05 00:12 48.23862 -69.29658 30452 ft 460 kts 225°
2026-05-05 00:12 48.21268 -69.32514 30975 ft 462 kts 225°
2026-05-05 00:13 48.18673 -69.35366 31597 ft 462 kts 224°
2026-05-05 00:13 48.16086 -69.38208 32272 ft 460 kts 223°
2026-05-05 00:13 48.13509 -69.41036 32949 ft 458 kts 223°
2026-05-05 00:13 48.10949 -69.43845 33619 ft 456 kts 222°
2026-05-05 00:14 48.08395 -69.46639 34218 ft 452 kts 222°
2026-05-05 00:14 48.05863 -69.49406 34741 ft 451 kts 222°
2026-05-05 00:14 48.03331 -69.52169 35190 ft 451 kts 221°
2026-05-05 00:14 48.00792 -69.54936 35560 ft 451 kts 221°
2026-05-05 00:15 47.98265 -69.57684 35684 ft 449 kts 221°
2026-05-05 00:15 47.93216 -69.63161 35711 ft 449 kts 221°
2026-05-05 00:16 47.88198 -69.68590 35711 ft 446 kts 221°
2026-05-05 00:16 47.83167 -69.74025 35713 ft 447 kts 221°
2026-05-05 00:17 47.78158 -69.79421 35714 ft 447 kts 221°
2026-05-05 00:17 47.73133 -69.84817 35713 ft 444 kts 221°
2026-05-05 00:18 47.68130 -69.90174 35711 ft 443 kts 222°
2026-05-05 00:18 47.63136 -69.95514 35711 ft 443 kts 222°
2026-05-05 00:19 47.58119 -70.00868 35711 ft 443 kts 222°
2026-05-05 00:19 47.53110 -70.06197 35699 ft 443 kts 222°
2026-05-05 00:20 47.48137 -70.11475 35714 ft 443 kts 222°
2026-05-05 00:20 47.43359 -70.17130 35728 ft 435 kts 231°
2026-05-05 00:21 47.39436 -70.23819 35723 ft 430 kts 237°
2026-05-05 00:21 47.35603 -70.30604 35721 ft 430 kts 237°
2026-05-05 00:22 47.31756 -70.37368 35730 ft 430 kts 237°
2026-05-05 00:22 47.27906 -70.44113 35737 ft 430 kts 236°
2026-05-05 00:23 47.24050 -70.50851 35737 ft 430 kts 236°
2026-05-05 00:23 47.20192 -70.57577 35740 ft 430 kts 236°
2026-05-05 00:24 47.16351 -70.64257 35741 ft 430 kts 236°
2026-05-05 00:24 47.12482 -70.70969 35738 ft 431 kts 236°
2026-05-05 00:25 47.08630 -70.77629 35757 ft 426 kts 236°
2026-05-05 00:25 47.04785 -70.84269 35757 ft 427 kts 236°
2026-05-05 00:26 47.00939 -70.90893 35759 ft 427 kts 236°
2026-05-05 00:26 46.97084 -70.97516 35760 ft 427 kts 236°
2026-05-05 00:27 46.93226 -71.04128 35771 ft 427 kts 236°
2026-05-05 00:27 46.89369 -71.10723 35771 ft 427 kts 236°
2026-05-05 00:28 46.85529 -71.17271 35765 ft 427 kts 236°
2026-05-05 00:28 46.81682 -71.23868 35766 ft 424 kts 239°
2026-05-05 00:29 46.78831 -71.31207 35765 ft 410 kts 255°
2026-05-05 00:29 46.77420 -71.39165 35759 ft 404 kts 263°
2026-05-05 00:30 46.76256 -71.47127 35770 ft 400 kts 263°
2026-05-05 00:30 46.75078 -71.55069 35772 ft 401 kts 262°
2026-05-05 00:31 46.73892 -71.63002 35772 ft 401 kts 262°
2026-05-05 00:31 46.72701 -71.70918 35760 ft 398 kts 262°
2026-05-05 00:32 46.71508 -71.78821 35766 ft 399 kts 262°
2026-05-05 00:32 46.70310 -71.86715 35755 ft 399 kts 262°
2026-05-05 00:33 46.69110 -71.94584 35754 ft 397 kts 262°
2026-05-05 00:33 46.67912 -72.02398 35755 ft 398 kts 262°
2026-05-05 00:34 46.66699 -72.10269 35751 ft 398 kts 262°
2026-05-05 00:34 46.65483 -72.18124 35753 ft 398 kts 262°
2026-05-05 00:35 46.64262 -72.25976 35744 ft 398 kts 262°
2026-05-05 00:35 46.63036 -72.33822 35719 ft 398 kts 262°
2026-05-05 00:36 46.61802 -72.41687 35745 ft 398 kts 262°
2026-05-05 00:36 46.60572 -72.49483 35735 ft 398 kts 262°
2026-05-05 00:37 46.59326 -72.57339 35735 ft 398 kts 261°
2026-05-05 00:37 46.58076 -72.65183 35735 ft 398 kts 261°
2026-05-05 00:38 46.56822 -72.73020 35732 ft 398 kts 261°
2026-05-05 00:38 46.55560 -72.80864 35727 ft 398 kts 261°
2026-05-05 00:39 46.54296 -72.88690 35734 ft 398 kts 261°
2026-05-05 00:39 46.53026 -72.96508 35737 ft 398 kts 261°
2026-05-05 00:40 46.51748 -73.04342 35736 ft 400 kts 261°
2026-05-05 00:40 46.50461 -73.12194 35736 ft 399 kts 261°
2026-05-05 00:41 46.49171 -73.20035 35732 ft 399 kts 261°
2026-05-05 00:41 46.47882 -73.27826 35735 ft 399 kts 261°
2026-05-05 00:42 46.46581 -73.35657 35732 ft 399 kts 261°
2026-05-05 00:42 46.45274 -73.43489 35730 ft 400 kts 261°
2026-05-05 00:43 46.44096 -73.50518 35732 ft 399 kts 261°